DW8947 Weather Reports


time (UTC)temp
C
wind
direction
speed
KPH
gust
KPH
rain 1hr
cm
rain 24hr
cm
rain mn
cm
humidity
%
barometer
mb
20260902014705 17 160 1.6 4.8 0.00 0.00 0.00 81 1007.3
20260902014205 17 152 1.6 4.8 0.00 0.00 0.00 81 1007.3
20260902013204 17 155 1.6 4.8 0.00 0.00 0.00 80 1007.3
20260902011705 17 161 1.6 3.2 0.00 0.00 0.00 79 1007.3
20260902005705 18 155 0.0 3.2 0.00 0.00 0.00 79 1007.3
20260902005204 17 122 1.6 3.2 0.00 0.00 0.00 79 1007.3
20260902004205 17 152 0.0 3.2 0.00 0.00 0.00 78 1007.3
20260902002705 18 149 1.6 4.8 0.00 0.00 0.00 77 1007.3
20260902001704 18 156 1.6 4.8 0.00 0.00 0.00 77 1007.3
20260902001205 18 181 1.6 3.2 0.00 0.00 0.00 77 1007.3
20260902000204 18 166 1.6 4.8 0.00 0.00 0.00 76 1007.3
20260901235705 18 193 1.6 4.8 0.00 0.00 0.00 76 1007.3
20260901235204 18 165 1.6 4.8 0.00 0.00 0.00 75 1007.3
20260901234705 18 163 1.6 3.2 0.00 0.00 0.00 74 1007.3
20260901234205 18 164 1.6 4.8 0.00 0.00 0.00 74 1007.4
20260901232705 18 147 1.6 4.8 0.00 0.00 0.00 73 1007.3
20260901231705 19 156 1.6 4.8 0.00 0.00 0.00 72 1007.3
20260901230704 19 177 1.6 3.2 0.00 0.00 0.00 73 1007.3
20260901230204 19 172 1.6 4.8 0.00 0.00 0.00 73 1007.3
20260901225705 19 155 1.6 3.2 0.00 0.00 0.00 72 1007.3
20260901223205 19 144 1.6 3.2 0.00 0.00 0.00 74 1007.3
20260901222704 19 156 1.6 4.8 0.00 0.00 0.00 73 1007.3
20260901221705 19 175 1.6 3.2 0.00 0.00 0.00 72 1007.3
20260901221205 20 153 1.6 3.2 0.00 0.00 0.00 73 1007.4
20260901220705 19 137 1.6 3.2 0.00 0.00 0.00 72 1007.5
20260901215204 19 180 0.0 3.2 0.00 0.00 0.00 72 1007.6
20260901214205 20 162 1.6 4.8 0.00 0.00 0.00 72 1007.5
20260901213705 20 167 1.6 3.2 0.00 0.00 0.00 72 1007.5
20260901212704 19 144 1.6 3.2 0.00 0.00 0.00 74 1007.6
20260901211704 20 144 1.6 3.2 0.00 0.00 0.00 73 1007.7
20260901210204 19 232 1.6 3.2 0.00 0.00 0.00 73 1007.8
20260901205705 19 162 1.6 4.8 0.00 0.00 0.00 72 1007.8
20260901205204 20 159 1.6 4.8 0.00 0.00 0.00 71 1007.8
20260901204204 21 193 1.6 3.2 0.00 0.00 0.00 69 1007.7
20260901203704 21 203 1.6 4.8 0.00 0.00 0.00 69 1007.8
20260901203205 20 172 1.6 4.8 0.00 0.00 0.00 70 1007.8
20260901202705 20 150 1.6 4.8 0.00 0.00 0.00 72 1007.8
20260901202205 20 160 1.6 3.2 0.00 0.00 0.00 72 1007.9
20260901201705 20 154 1.6 4.8 0.00 0.00 0.00 73 1007.9
20260901200705 19 140 1.6 4.8 0.00 0.00 0.00 73 1007.9
20260901200204 19 259 1.6 3.2 0.00 0.00 0.00 74 1007.8
20260901195705 19 191 1.6 4.8 0.00 0.00 0.00 75 1007.9
20260901193705 20 157 1.6 4.8 0.00 0.00 0.00 73 1008.0
20260901193204 20 151 1.6 3.2 0.00 0.00 0.00 74 1008.0
20260901192705 20 171 1.6 4.8 0.00 0.00 0.00 73 1008.0
20260901191204 19 154 1.6 4.8 0.00 0.00 0.00 75 1008.1
20260901190705 18 157 1.6 3.2 0.00 0.00 0.00 76 1008.2
20260901185705 18 170 1.6 3.2 0.00 0.00 0.00 77 1008.2
20260901184705 17 180 1.6 3.2 0.00 0.00 0.00 78 1008.1
20260901184205 17 154 1.6 4.8 0.00 0.00 0.00 80 1008.2
20260901183204 17 146 0.0 1.6 0.00 0.00 0.00 80 1008.2
20260901181204 17 154 0.0 3.2 0.00 0.00 0.00 83 1008.2
20260901180704 17 180 0.0 3.2 0.00 0.00 0.00 83 1008.2
20260901174705 16 180 0.0 3.2 0.00 0.00 0.00 85 1008.1
20260901174205 16 115 0.0 3.2 0.00 0.00 0.00 86 1008.2
20260901173705 16 143 0.0 3.2 0.00 0.00 0.00 86 1008.2
20260901173204 16 155 1.6 3.2 0.00 0.00 0.00 87 1008.1
20260901171204 15 157 1.6 3.2 0.00 0.00 0.00 87 1008.2
20260901170705 15 122 1.6 3.2 0.00 0.00 0.00 88 1008.1
20260901170205 15 140 1.6 3.2 0.00 0.00 0.00 87 1008.1
20260901164205 16 150 1.6 3.2 0.00 0.00 0.00 87 1008.1
20260901163704 16 150 0.0 0.0 0.00 0.00 0.00 87 1008.1
20260901163204 15 147 0.0 0.0 0.00 0.00 0.00 87 1008.1
20260901161704 15 178 0.0 0.0 0.00 0.00 0.00 88 1008.1
20260901161205 15 168 0.0 0.0 0.00 0.00 0.00 88 1008.1
20260901155704 15 165 0.0 0.0 0.00 0.00 0.00 89 1008.1
20260901155205 15 162 0.0 0.0 0.00 0.00 0.00 89 1008.2
20260901154204 15 164 0.0 0.0 0.00 0.00 0.00 90 1008.2
20260901153705 15 160 0.0 0.0 0.00 0.00 0.00 90 1008.3
20260901152704 15 165 0.0 0.0 0.00 0.00 0.00 90 1008.3
20260901152205 15 165 0.0 0.0 0.00 0.00 0.00 90 1008.3
20260901151705 15 121 0.0 0.0 0.00 0.00 0.00 90 1008.3
20260901151204 15 121 0.0 0.0 0.00 0.00 0.00 90 1008.3
20260901150204 15 110 0.0 0.0 0.00 0.00 0.00 91 1008.2
20260901145704 14 110 0.0 0.0 0.00 0.00 0.00 91 1008.2
20260901144704 14 110 0.0 0.0 0.00 0.00 0.00 91 1008.1
20260901142204 13 110 0.0 0.0 0.00 0.00 0.00 91 1008.1
20260901141704 13 110 0.0 0.0 0.00 0.00 0.00 91 1008.1
20260901140705 13 110 0.0 0.0 0.00 0.00 0.00 91 1008.1
20260901140204 13 110 0.0 0.0 0.00 0.00 0.00 90 1008.1
20260901135204 13 110 0.0 0.0 0.00 0.00 0.00 89 1008.0
20260901134205 13 110 0.0 0.0 0.00 0.00 0.00 89 1007.9
20260901132704 13 110 0.0 0.0 0.00 0.00 0.00 89 1007.8
20260901131704 13 110 0.0 0.0 0.00 0.00 0.00 88 1007.7
20260901125205 13 110 0.0 0.0 0.00 0.00 0.00 87 1007.5
20260901124705 13 110 0.0 0.0 0.00 0.00 0.00 87 1007.4
20260901124204 13 110 0.0 0.0 0.00 0.00 0.00 87 1007.4
20260901123704 13 110 0.0 0.0 0.00 0.00 0.00 87 1007.4
20260901121704 13 110 0.0 0.0 0.00 0.00 0.00 86 1007.3
20260901121204 13 110 0.0 0.0 0.00 0.00 0.00 87 1007.3
20260901120704 13 110 0.0 0.0 0.00 0.00 0.00 87 1007.2
20260901113704 13 110 0.0 0.0 0.00 0.00 0.00 86 1007.3
20260901113205 13 110 0.0 0.0 0.00 0.00 0.00 86 1007.3
20260901112204 13 110 0.0 0.0 0.00 0.00 0.00 85 1007.3
20260901111204 13 110 0.0 0.0 0.00 0.00 0.00 86 1007.4
20260901110205 13 110 0.0 0.0 0.00 0.00 0.00 86 1007.3
20260901105704 13 110 0.0 0.0 0.00 0.00 0.00 85 1007.3
20260901105204 13 110 0.0 0.0 0.00 0.00 0.00 85 1007.3
20260901104704 13 110 0.0 0.0 0.00 0.00 0.00 85 1007.3
20260901104204 13 110 0.0 0.0 0.00 0.00 0.00 86 1007.4
20260901103704 13 110 0.0 0.0 0.00 0.00 0.00 85 1007.4
20260901103204 13 110 0.0 0.0 0.00 0.00 0.00 85 1007.4
20260901102704 13 110 0.0 0.0 0.00 0.00 0.00 86 1007.4
20260901102204 13 110 0.0 0.0 0.00 0.00 0.00 86 1007.4
20260901101205 13 110 0.0 0.0 0.00 0.00 0.00 86 1007.4
20260901095705 13 110 0.0 0.0 0.00 0.00 0.00 86 1007.2
20260901095204 13 110 0.0 0.0 0.00 0.00 0.00 86 1007.2
20260901094705 13 110 0.0 0.0 0.00 0.00 0.00 85 1007.2
20260901093704 13 110 0.0 0.0 0.00 0.00 0.00 85 1007.1
20260901091205 13 110 0.0 0.0 0.00 0.00 0.00 86 1007.3
20260901084704 13 110 0.0 0.0 0.00 0.00 0.00 82 1007.1
20260901084204 13 110 0.0 0.0 0.00 0.00 0.00 82 1007.1
20260901083204 14 110 0.0 0.0 0.00 0.00 0.00 82 1007.0
20260901082704 14 110 0.0 0.0 0.00 0.00 0.00 82 1007.0
20260901075704 14 136 0.0 0.0 0.00 0.00 0.00 83 1006.9
20260901075205 14 107 0.0 0.0 0.00 0.00 0.00 83 1006.9
20260901074704 14 156 0.0 0.0 0.00 0.00 0.00 83 1006.8
20260901074204 14 98 0.0 0.0 0.00 0.00 0.00 82 1006.8
20260901073205 15 93 0.0 0.0 0.00 0.00 0.00 82 1006.8
20260901072704 15 93 0.0 0.0 0.00 0.00 0.00 82 1006.9
20260901072204 15 93 0.0 0.0 0.00 0.00 0.00 81 1006.9
20260901070705 15 93 0.0 0.0 0.00 0.00 0.00 78 1006.7
20260901070205 15 93 0.0 0.0 0.00 0.00 0.00 78 1006.7
20260901065204 15 93 0.0 0.0 0.00 0.00 0.00 79 1006.8
20260901064704 15 93 0.0 0.0 0.00 0.00 0.00 78 1006.8
20260901064204 15 93 0.0 0.0 0.00 0.00 0.00 76 1006.8
20260901063704 16 93 0.0 0.0 0.00 0.00 0.00 76 1006.9
20260901061205 16 93 0.0 0.0 0.00 0.00 0.00 77 1006.8
20260901055204 16 97 0.0 0.0 0.00 0.00 0.00 77 1006.9
20260901054204 16 66 0.0 0.0 0.00 0.00 0.00 76 1007.1
20260901053204 16 113 0.0 0.0 0.00 0.00 0.00 77 1007.2
20260901052704 16 113 0.0 0.0 0.00 0.00 0.00 76 1007.2
20260901052205 16 110 0.0 0.0 0.00 0.00 0.00 75 1007.2
20260901051204 16 125 0.0 0.0 0.00 0.00 0.00 75 1007.2
20260901044704 16 125 0.0 0.0 0.00 0.00 0.00 73 1007.4
20260901044204 16 125 0.0 3.2 0.00 0.00 0.00 73 1007.3
20260901042704 17 125 0.0 0.0 0.00 0.00 0.00 72 1007.3
20260901041704 17 86 0.0 1.6 0.00 0.00 0.00 73 1007.3
20260901041204 17 197 0.0 3.2 0.00 0.00 0.00 72 1007.3
20260901040704 17 197 0.0 1.6 0.00 0.00 0.00 71 1007.2
20260901035704 17 122 0.0 1.6 0.00 0.00 0.00 71 1007.2
20260901034204 17 120 0.0 3.2 0.00 0.00 0.00 73 1006.9
20260901032204 18 115 0.0 3.2 0.00 0.00 0.00 71 1006.7
20260901031704 18 115 0.0 1.6 0.00 0.00 0.00 70 1006.7
20260901031204 18 115 0.0 3.2 0.00 0.00 0.00 69 1006.7
20260901030704 18 115 0.0 3.2 0.00 0.00 0.00 69 1006.6
20260901030204 18 115 0.0 3.2 0.00 0.00 0.00 70 1006.6
20260901025204 19 161 0.0 3.2 0.00 0.00 0.00 66 1006.7
20260901024704 19 161 0.0 3.2 0.00 0.00 0.00 67 1006.7
20260901023704 19 192 0.0 3.2 0.00 0.00 0.00 69 1006.7
20260901023204 19 192 0.0 1.6 0.00 0.00 0.00 69 1006.7
20260901022204 19 215 0.0 3.2 0.00 0.00 0.00 68 1006.8
20260901020704 20 17 0.0 3.2 0.00 0.00 0.00 67 1006.8
20260901020204 20 171 0.0 3.2 0.00 0.00 0.00 66 1006.9
20260901015704 20 149 1.6 3.2 0.00 0.00 0.00 65 1006.8